Location: Unspecified
(32.5099°N, 80.0190°W)
Time: 04:25:15
(UTC-04:00)

CZ-3 Stage 3 - Visible Passes

Search period start: 25 April 2014 00:00
Search period end: 05 May 2014 00:00
Orbit: 473 x 34783 km, 30.6° (Epoch: 23 April)

Date Brightness Start Highest point End Pass type
(mag) Time Alt. Az. Time Alt. Az. Time Alt. Az.
26 Apr 5.6 04:33:52 29° WSW 04:43:55 52° SSW 13:42:37 10° SSE visible
27 Apr 6.1 01:07:51 27° ESE 01:07:51 27° ESE 01:20:51 10° ESE visible
27 Apr 2.8 21:21:30 10° SW 21:24:12 25° S 21:24:12 25° S visible
29 Apr 5.7 04:32:52 28° WSW 04:43:43 50° SSW 13:46:45 10° SSE visible
30 Apr 6.0 01:06:52 28° ESE 01:06:52 28° ESE 01:21:39 10° ESE visible
30 Apr 2.4 21:20:22 10° SW 21:23:26 30° SSE 21:23:26 30° SSE visible
02 May 5.8 04:31:53 27° WSW 04:43:36 48° SSW 13:50:37 10° SSE visible
03 May 6.1 01:05:53 29° ESE 01:05:53 29° ESE 01:22:33 10° ESE visible
03 May 2.2 21:19:13 10° SW 21:22:18 34° SSE 21:22:40 32° SSE visible
